Weather History for Savannah Hunter, GA

Change the Weather History Date:

Sunday, December 9, 2012

  Actual Average Record
Temperature  
Mean Temperature 64 °F -  
Max Temperature 77 °F 62 °F 78 °F (2004)
Min Temperature 51 °F 43 °F 24 °F (2006)
Degree Days  
Heating Degree Days 1    
Growing Degree Days 14 (Base 50)    
Moisture  
Dew Point 56 °F    
Average Humidity 97    
Maximum Humidity 100    
Minimum Humidity 67    
Precipitation  
Precipitation 0.00 in - - ()
Sea Level Pressure  
Sea Level Pressure 30.08 in    
Wind  
Wind Speed 2 mph (WNW)    
Max Wind Speed 8 mph    
Max Gust Speed -    
Visibility 3 miles    
Events Fog    
Averages and records for this station are not official NWS values.
T = Trace of Precipitation, MM = Missing Value Source: NWS Daily Summary

Daily Weather History Graph

Daily Weather History Graph

Search for Another Location

Airport:

Trip Planner

Search our weather history database for the weather conditions in past years. The results will help you decide how hot, cold, wet, or windy it might be!

Date:

Astronomy

Dec. 09, 2012 Rise Set
Actual Time 7:13 AM EST 5:20 PM EST
Civil Twilight 6:47 AM EST 5:47 PM EST
Nautical Twilight 6:16 AM EST 6:17 PM EST
Astronomical Twilight 5:46 AM EST 6:47 PM EST
Moon 2:56 AM EST (12/9) 2:17 PM EST (12/9)
Length of Visible Light 11h 00m
Length of Day
10h 06m
Waning Crescent, 19% of the Moon is Illuminated
Dec 9
Waning Crescent
Dec 13
New
Dec 20
First Quarter
Dec 28
Full
Jan 4
Last Quarter

Hourly Weather History & Observations

Time (EST) Temp. Dew Point Humidity Pressure Visibility Wind Dir Wind Speed Gust Speed Precip Events Conditions
12:25 AM 53.6 °F 51.8 °F 94% 30.08 in 6.0 mi West 4.6 mph - N/A   Clear
12:28 AM 51.8 °F 51.8 °F 100% 30.08 in 2.5 mi West 4.6 mph - N/A   Clear
12:30 AM 51.8 °F 51.8 °F 100% 30.08 in 1.8 mi West 4.6 mph - N/A   Clear
12:31 AM 51.8 °F 51.8 °F 100% 30.08 in 1.5 mi West 5.8 mph - N/A   Clear
12:32 AM 51.8 °F 51.8 °F 100% 30.08 in 1.2 mi West 5.8 mph - N/A   Clear
12:33 AM 51.8 °F 51.8 °F 100% 30.08 in 1.0 mi West 5.8 mph - N/A   Clear
12:39 AM 51.8 °F 51.8 °F 100% 30.08 in 1.2 mi West 5.8 mph - N/A   Clear
12:41 AM 51.8 °F 51.8 °F 100% 30.08 in 1.5 mi West 4.6 mph - N/A   Clear
12:42 AM 51.8 °F 51.8 °F 100% 30.08 in 2.0 mi West 4.6 mph - N/A   Partly Cloudy
12:44 AM 51.8 °F 51.8 °F 100% 30.08 in 3.0 mi WSW 4.6 mph - N/A   Partly Cloudy
12:45 AM 51.8 °F 51.8 °F 100% 30.08 in 4.0 mi WSW 4.6 mph - N/A   Partly Cloudy
12:55 AM 51.8 °F 50.9 °F 97% 30.08 in 9.0 mi Calm Calm - N/A   Partly Cloudy
12:56 AM 51.8 °F 51.8 °F 100% 30.08 in 9.0 mi Calm Calm - N/A   Partly Cloudy
12:59 AM 51.8 °F 51.8 °F 100% 30.08 in 9.0 mi Calm Calm - N/A   Partly Cloudy
1:22 AM 53.6 °F 51.8 °F 94% 30.07 in 8.0 mi Calm Calm - N/A   Clear
1:45 AM 53.6 °F 51.8 °F 94% 30.07 in 2.5 mi Calm Calm - N/A   Partly Cloudy
1:47 AM 53.6 °F 51.8 °F 94% 30.07 in 1.8 mi Calm Calm - N/A   Partly Cloudy
1:48 AM 53.6 °F 51.8 °F 94% 30.07 in 1.5 mi Calm Calm - N/A   Partly Cloudy
1:50 AM 53.6 °F 51.8 °F 94% 30.07 in 1.2 mi Calm Calm - N/A   Partly Cloudy
1:51 AM 53.6 °F 51.8 °F 94% 30.07 in 1.2 mi Calm Calm - N/A   Partly Cloudy
1:54 AM 53.6 °F 51.8 °F 94% 30.07 in 1.2 mi Calm Calm - N/A   Scattered Clouds
1:55 AM 52.9 °F 52.3 °F 98% 30.07 in 1.5 mi Calm Calm - N/A   Scattered Clouds
1:56 AM 53.6 °F 51.8 °F 94% 30.07 in 1.8 mi Calm Calm - N/A   Scattered Clouds
1:57 AM 53.6 °F 51.8 °F 94% 30.07 in 2.0 mi Calm Calm - N/A   Scattered Clouds
1:59 AM 51.8 °F 51.8 °F 100% 30.07 in 3.0 mi Calm Calm - N/A   Scattered Clouds
2:23 AM 51.8 °F 51.8 °F 100% 30.07 in 2.5 mi Calm Calm - N/A   Partly Cloudy
2:25 AM 53.6 °F 51.8 °F 94% 30.07 in 2.5 mi Calm Calm - N/A   Partly Cloudy
2:27 AM 51.8 °F 51.8 °F 100% 30.07 in 2.5 mi Calm Calm - N/A   Clear
2:31 AM 51.8 °F 51.8 °F 100% 30.07 in 3.0 mi Calm Calm - N/A   Clear
2:55 AM 52.3 °F 51.4 °F 97% 30.07 in 10.0 mi West 3.5 mph - N/A   Clear
3:28 AM 51.8 °F 50.0 °F 94% 30.07 in 2.0 mi West 4.6 mph - N/A   Clear
3:29 AM 51.8 °F 50.0 °F 94% 30.07 in 1.5 mi West 4.6 mph - N/A   Clear
3:30 AM 51.8 °F 50.0 °F 94% 30.07 in 1.2 mi West 4.6 mph - N/A   Clear
3:31 AM 51.8 °F 50.0 °F 94% 30.07 in 1.0 mi West 4.6 mph - N/A   Clear
3:32 AM 51.8 °F 51.8 °F 100% 30.07 in 0.8 mi West 4.6 mph - N/A   Clear
3:33 AM 51.8 °F 51.8 °F 100% 30.07 in 0.8 mi West 4.6 mph - N/A   Clear
3:34 AM 51.8 °F 51.8 °F 100% 30.07 in 0.8 mi West 3.5 mph - N/A   Clear
3:35 AM 51.8 °F 51.8 °F 100% 30.07 in 0.5 mi West 3.5 mph - N/A Fog Fog
3:36 AM 51.8 °F 51.8 °F 100% 30.07 in 0.5 mi West 3.5 mph - N/A Fog Fog
3:41 AM 51.8 °F 51.8 °F 100% 30.07 in 0.8 mi WNW 4.6 mph - N/A   Clear
3:47 AM 51.8 °F 51.8 °F 100% 30.07 in 0.8 mi West 4.6 mph - N/A   Mist
3:53 AM 51.8 °F 51.8 °F 100% 30.07 in 0.5 mi Calm Calm - N/A Fog Fog
3:55 AM 52.7 °F 52.2 °F 98% 30.07 in 0.5 mi Calm Calm - N/A Fog Fog
4:00 AM 53.6 °F 51.8 °F 94% 30.07 in 0.5 mi Calm Calm - N/A Fog Fog
4:01 AM 53.6 °F 51.8 °F 94% 30.07 in 0.8 mi Calm Calm - N/A   Mist
4:04 AM 53.6 °F 51.8 °F 94% 30.07 in 1.0 mi Calm Calm - N/A   Mist
4:13 AM 53.6 °F 53.6 °F 100% 30.07 in 0.8 mi Calm Calm - N/A   Mist
4:18 AM 53.6 °F 53.6 °F 100% 30.07 in 1.0 mi Calm Calm - N/A   Mist
4:22 AM 55.4 °F 53.6 °F 94% 30.07 in 1.2 mi Calm Calm - N/A   Partly Cloudy
4:26 AM 55.4 °F 53.6 °F 94% 30.07 in 1.5 mi Calm Calm - N/A   Clear
4:27 AM 55.4 °F 53.6 °F 94% 30.07 in 1.8 mi Calm Calm - N/A   Clear
4:29 AM 53.6 °F 53.6 °F 100% 30.07 in 2.0 mi Calm Calm - N/A   Clear
4:32 AM 53.6 °F 53.6 °F 100% 30.07 in 1.8 mi Calm Calm - N/A   Clear
4:34 AM 53.6 °F 53.6 °F 100% 30.06 in 1.5 mi Calm Calm - N/A   Clear
4:36 AM 53.6 °F 53.6 °F 100% 30.06 in 1.2 mi Calm Calm - N/A   Clear
4:37 AM 53.6 °F 53.6 °F 100% 30.06 in 1.2 mi Calm Calm - N/A   Partly Cloudy
4:38 AM 53.6 °F 53.6 °F 100% 30.06 in 1.0 mi Calm Calm - N/A   Mist
4:41 AM 53.6 °F 53.6 °F 100% 30.06 in 1.0 mi Calm Calm - N/A   Mist
4:42 AM 53.6 °F 53.6 °F 100% 30.06 in 0.8 mi Calm Calm - N/A   Mist
4:48 AM 53.6 °F 53.6 °F 100% 30.07 in 0.5 mi Calm Calm - N/A Fog Fog
4:51 AM 53.6 °F 53.6 °F 100% 30.07 in 0.5 mi Calm Calm - N/A Fog Fog
4:55 AM 53.4 °F 53.1 °F 99% 30.07 in 0.5 mi Calm Calm - N/A Fog Fog
4:56 AM 53.6 °F 53.6 °F 100% 30.07 in 0.2 mi Calm Calm - N/A Fog Fog
5:22 AM 53.6 °F 53.6 °F 100% 30.08 in 0.5 mi Calm Calm - N/A Fog Fog
5:50 AM 53.6 °F 53.6 °F 100% 30.08 in 0.5 mi Calm Calm - N/A Fog Fog
5:55 AM 54.0 °F 53.6 °F 99% 30.08 in 0.5 mi Calm Calm - N/A Fog Fog
6:01 AM 53.6 °F 53.6 °F 100% 30.08 in 0.8 mi Calm Calm - N/A   Mist
6:06 AM 53.6 °F 53.6 °F 100% 30.08 in 0.8 mi Calm Calm - N/A   Mist
6:08 AM 53.6 °F 53.6 °F 100% 30.08 in 0.8 mi Calm Calm - N/A   Partly Cloudy
6:26 AM 53.6 °F 53.6 °F 100% 30.09 in 0.8 mi Calm Calm - N/A   Clear
6:34 AM 53.6 °F 53.6 °F 100% 30.09 in 0.5 mi Calm Calm - N/A Fog Fog
6:39 AM 53.6 °F 53.6 °F 100% 30.09 in 0.8 mi Calm Calm - N/A   Clear
6:40 AM 53.6 °F 53.6 °F 100% 30.09 in 0.8 mi Calm Calm - N/A   Clear
6:43 AM 53.6 °F 53.6 °F 100% 30.09 in 0.8 mi Calm Calm - N/A   Clear
6:45 AM 53.6 °F 53.6 °F 100% 30.09 in 1.0 mi Calm Calm - N/A   Clear
6:48 AM 53.6 °F 53.6 °F 100% 30.09 in 1.2 mi Calm Calm - N/A   Clear
6:50 AM 53.6 °F 53.6 °F 100% 30.09 in 1.5 mi Calm Calm - N/A   Clear
6:51 AM 53.6 °F 53.6 °F 100% 30.09 in 1.2 mi Calm Calm - N/A   Clear
6:53 AM 53.6 °F 53.6 °F 100% 30.09 in 1.0 mi Calm Calm - N/A   Clear
6:55 AM 54.3 °F 54.3 °F 100% 30.09 in 1.0 mi Calm Calm - N/A   Clear
6:56 AM 53.6 °F 53.6 °F 100% 30.09 in 0.8 mi Calm Calm - N/A   Clear
6:59 AM 55.4 °F 55.4 °F 100% 30.09 in 0.5 mi Calm Calm - N/A Fog Fog
7:00 AM 55.4 °F 55.4 °F 100% 30.09 in 0.5 mi Calm Calm - N/A Fog Fog
7:03 AM 55.4 °F 55.4 °F 100% 30.09 in 0.5 mi Calm Calm - N/A Fog Fog
7:04 AM 55.4 °F 55.4 °F 100% 30.09 in 0.2 mi Calm Calm - N/A Fog Fog
7:48 AM 55.4 °F 55.4 °F 100% 30.10 in 0.2 mi Calm Calm - N/A Fog Fog
7:49 AM 55.4 °F 55.4 °F 100% 30.10 in 0.2 mi Calm Calm - N/A Fog Fog
7:52 AM 55.4 °F 55.4 °F 100% 30.10 in 0.5 mi NW 3.5 mph - N/A Fog Fog
7:55 AM 55.6 °F 55.6 °F 100% 30.11 in 0.5 mi NW 3.5 mph - N/A Fog Fog
7:56 AM 55.4 °F 55.4 °F 100% 30.11 in 0.5 mi NW 4.6 mph - N/A Fog Fog
7:57 AM 55.4 °F 55.4 °F 100% 30.11 in 0.8 mi NW 4.6 mph - N/A   Clear
8:00 AM 55.4 °F 55.4 °F 100% 30.11 in 1.0 mi NW 5.8 mph - N/A   Clear
8:02 AM 55.4 °F 55.4 °F 100% 30.11 in 1.2 mi NNW 4.6 mph - N/A   Clear
8:03 AM 55.4 °F 55.4 °F 100% 30.11 in 1.5 mi NW 5.8 mph - N/A   Clear
8:04 AM 55.4 °F 55.4 °F 100% 30.11 in 1.8 mi NW 5.8 mph - N/A   Partly Cloudy
8:08 AM 55.4 °F 55.4 °F 100% 30.11 in 2.0 mi NW 4.6 mph - N/A   Partly Cloudy
8:14 AM 55.4 °F 55.4 °F 100% 30.11 in 3.0 mi NNW 4.6 mph - N/A   Clear
8:17 AM 55.4 °F 55.4 °F 100% 30.12 in 3.0 mi NW 3.5 mph - N/A   Partly Cloudy
8:34 AM 57.2 °F 57.2 °F 100% 30.12 in 2.5 mi NNW 4.6 mph - N/A   Partly Cloudy
8:39 AM 57.2 °F 57.2 °F 100% 30.12 in 1.8 mi NNW 3.5 mph - N/A   Partly Cloudy
8:41 AM 57.2 °F 57.2 °F 100% 30.12 in 1.5 mi Calm Calm - N/A   Partly Cloudy
8:47 AM 57.2 °F 57.2 °F 100% 30.12 in 1.2 mi Calm Calm - N/A   Partly Cloudy
8:48 AM 57.2 °F 57.2 °F 100% 30.12 in 1.0 mi NNW 3.5 mph - N/A   Mist
8:49 AM 57.2 °F 57.2 °F 100% 30.12 in 0.8 mi NNW 3.5 mph - N/A   Mist
8:50 AM 57.2 °F 57.2 °F 100% 30.12 in 0.5 mi NNW 3.5 mph - N/A Fog Fog
8:53 AM 57.2 °F 57.2 °F 100% 30.12 in 0.2 mi Calm Calm - N/A Fog Fog
8:55 AM 57.9 °F 57.9 °F 100% 30.12 in 0.2 mi Calm Calm - N/A Fog Fog
8:56 AM 57.2 °F 57.2 °F 100% 30.12 in 0.2 mi Calm Calm - N/A Fog Fog
8:57 AM 57.2 °F 57.2 °F 100% 30.12 in 0.2 mi Calm Calm - N/A Fog Fog
9:25 AM 59.0 °F 59.0 °F 100% 30.13 in 0.2 mi Calm Calm - N/A Fog Fog
9:27 AM 59.0 °F 59.0 °F 100% 30.13 in 0.2 mi Calm Calm - N/A Fog Fog
9:30 AM 59.0 °F 59.0 °F 100% 30.13 in 0.5 mi Calm Calm - N/A Fog Fog
9:36 AM 59.0 °F 59.0 °F 100% 30.14 in 0.5 mi NNW 3.5 mph - N/A Fog Fog
9:37 AM 59.0 °F 59.0 °F 100% 30.14 in 0.8 mi NNW 4.6 mph - N/A   Mist
9:40 AM 59.0 °F 59.0 °F 100% 30.13 in 0.8 mi NNW 4.6 mph - N/A   Mist
9:42 AM 60.8 °F 60.8 °F 100% 30.13 in 1.0 mi NNW 4.6 mph - N/A   Mist
9:45 AM 60.8 °F 60.8 °F 100% 30.13 in 1.2 mi NNW 4.6 mph - N/A   Overcast
9:52 AM 60.8 °F 60.8 °F 100% 30.13 in 1.5 mi NNW 4.6 mph - N/A   Overcast
9:54 AM 60.8 °F 60.8 °F 100% 30.13 in 1.8 mi NNW 3.5 mph - N/A   Overcast
9:55 AM 60.4 °F 60.4 °F 100% 30.13 in 1.8 mi NNW 3.5 mph - N/A   Overcast
9:56 AM 60.8 °F 60.8 °F 100% 30.13 in 2.0 mi NNW 3.5 mph - N/A   Overcast
9:59 AM 60.8 °F 60.8 °F 100% 30.13 in 3.0 mi Calm Calm - N/A   Overcast
10:05 AM 60.8 °F 60.8 °F 100% 30.13 in 6.0 mi Calm Calm - N/A   Overcast
10:26 AM 62.6 °F 62.6 °F 100% 30.12 in 8.0 mi Calm Calm - N/A   Overcast
10:39 AM 62.6 °F 62.6 °F 100% 30.12 in 10.0 mi Calm Calm - N/A   Scattered Clouds
10:43 AM 64.4 °F 64.4 °F 100% 30.12 in 10.0 mi Calm Calm - N/A   Mostly Cloudy
10:48 AM 64.4 °F 64.4 °F 100% 30.12 in 10.0 mi Calm Calm - N/A   Scattered Clouds
10:55 AM 65.1 °F 64.8 °F 99% 30.12 in 10.0 mi Calm Calm - N/A   Scattered Clouds
11:55 AM 71.1 °F 68.4 °F 91% 30.09 in 10.0 mi Calm Calm - N/A   Clear
12:53 PM 75.2 °F 66.2 °F 73% 30.06 in 10.0 mi Variable 3.5 mph - N/A   Mostly Cloudy
12:55 PM 75.2 °F 65.5 °F 72% 30.06 in 10.0 mi Calm Calm - N/A   Overcast
1:22 PM 75.2 °F 64.4 °F 69% 30.05 in 10.0 mi Variable 3.5 mph - N/A   Mostly Cloudy
1:55 PM 76.8 °F 65.1 °F 67% 30.03 in 10.0 mi SSW 5.8 mph - N/A   Partly Cloudy
2:22 PM 77.0 °F 66.2 °F 69% 30.03 in 10.0 mi East 6.9 mph - N/A   Mostly Cloudy
2:46 PM 75.2 °F 64.4 °F 69% 30.03 in 10.0 mi ESE 8.1 mph - N/A   Mostly Cloudy
2:55 PM 76.8 °F 65.7 °F 68% 30.03 in 10.0 mi ESE 6.9 mph - N/A   Scattered Clouds
3:55 PM 74.1 °F 66.2 °F 76% 30.03 in 10.0 mi ESE 8.1 mph - N/A   Overcast
4:55 PM 71.2 °F 65.8 °F 83% 30.02 in 10.0 mi East 8.1 mph - N/A   Overcast
5:55 PM 69.3 °F 64.9 °F 86% 30.03 in 10.0 mi East 3.5 mph - N/A   Overcast
6:55 PM 68.4 °F 64.0 °F 86% 30.02 in 10.0 mi Calm Calm - N/A   Mostly Cloudy
7:55 PM 66.7 °F 63.9 °F 90% 30.03 in 10.0 mi Calm Calm - N/A   Mostly Cloudy
8:55 PM 65.8 °F 63.9 °F 93% 30.03 in 10.0 mi Calm Calm - N/A   Overcast
9:55 PM 65.3 °F 63.7 °F 94% 30.02 in 10.0 mi Calm Calm - N/A   Overcast
10:41 PM 64.4 °F 62.6 °F 94% 30.02 in 10.0 mi Calm Calm - N/A   Overcast
10:55 PM 64.9 °F 63.5 °F 95% 30.02 in 10.0 mi Calm Calm - N/A   Mostly Cloudy
11:07 PM 66.2 °F 64.4 °F 94% 30.01 in 10.0 mi Calm Calm - N/A   Mostly Cloudy
11:38 PM 64.4 °F 62.6 °F 94% 29.99 in 10.0 mi SSW 2.3 mph - N/A   Scattered Clouds
11:40 PM 64.4 °F 62.6 °F 94% 30.00 in 10.0 mi Calm Calm - N/A   Mostly Cloudy
11:55 PM 63.1 °F 61.5 °F 94% 29.99 in 10.0 mi Calm Calm - N/A   Scattered Clouds